EGNX

East Midlands Airport

Airport
ICAO code
EGNX
IATA Code
EMA
Summary
ICAO Region
EUR
ICAO Territory
Location

Castle Donington, Leicestershire, England

Serving
Nottingham
Elevation
306 ft
Coordinates
52° 49' 51" N , 1° 19' 54" W
KCC
Metar
Observation
EGNX 060020Z 20006KT CAVOK 01/M02 Q1044
Station
East Midlands
Date/Time
2023-02-06 00:20:00
Wind direction
200°
Wind speed
06 kts
Lowest cloud amount
clouds and visibility OK
Temperature
1°C
Dew point
-2°C
Humidity
80%
QNH
1044 hPa
Weather condition
n/a

Description

International airport serving the cities of Nottingham, Leicester, Derby and the East Midlands region of England generally.

Climatology

Temperate Marine climate/Oceanic climate (Köppen climate classification Cfb). Moderately cool summer and comparatively warm winter with a temperature range of only 14°C. Prevailing south-westerly winds from the Atlantic Ocean.

Runways

Designator Length Width Surface Rops
9/27 2893 46 ASP Yes/Yes

SKYbrary Partners:

Safety knowledge contributed by: